User: anonymous   Login
Location: Albany
(35.0000°S, 118.0000°E)
Time: 04:19:47
(UTC-04:00)
Language:

ERS-1 Rocket - Orbit

View from above orbital plane
View from above orbital plane
View from above satellite
View from above satellite

Ground track
Ground track

The orbit data is extracted from the following two-line orbital elements,

1 21610U 91050F   15214.12996583  .00000100  00000-0  45763-4 0  9991
2 21610 098.7007 251.7593 0003348 166.7612 257.8249 14.40638814261478
Epoch (UTC): 02 August 2015 03:07:09
Eccentricity: 0.0003348
inclination: 98.7007°
perigee height: 754 km
apogee height: 759 km
right ascension of ascending node: 251.7593°
argument of perigee: 166.7612°
revolutions per day: 14.40638814
mean anomaly at epoch: 257.8249°
orbit number at epoch: 26147

The dashed part of the orbit path shows where the satellite is in the earth's shadow,  

DLR